Hebron, KY

4:44 PM EDT on July 23, 2016 (GMT -0400)
Cincinnati-Northern KY International

Weather History for KCVG - March, 2012

Change the Weather History Date:

Saturday, March 24, 2012

  Actual Average Record
Temperature  
Mean Temperature 59 °F 46 °F  
Max Temperature 65 °F 56 °F 87 °F (1910)
Min Temperature 52 °F 36 °F 11 °F (1974)
Degree Days  
Heating Degree Days 6 19  
Month to date heating degree days 252 545  
Since 1 July heating degree days 3577 4372  
Cooling Degree Days 0 0  
Month to date cooling degree days 33 0  
Year to date cooling degree days 33 0  
Growing Degree Days 8 (Base 50)    
Moisture  
Dew Point 51 °F    
Average Humidity 78    
Maximum Humidity 100    
Minimum Humidity 56    
Precipitation  
Precipitation 0.09 in 0.14 in 2.21 in (1913)
Month to date precipitation 2.53 2.97  
Year to date precipitation 9.46 8.78  
Snow  
Snow 0.00 in 0.00 in 6.70 in (1906)
Month to date snowfall 1.5 2.6  
Since 1 July snowfall 5.6 21.2  
Snow Depth 0.00 in    
Sea Level Pressure  
Sea Level Pressure 29.83 in    
Wind  
Wind Speed 6 mph (West)    
Max Wind Speed 12 mph    
Max Gust Speed 16 mph    
Visibility 8 miles    
Events Rain , Thunderstorm    
T = Trace of Precipitation, MM = Missing Value Source: NWS Daily Summary

Daily Weather History Graph

Daily Weather History Graph

Search for Another Location

Airport or City:

Trip Planner

Search our weather history database for the weather conditions in past years. The results will help you decide how hot, cold, wet, or windy it might be!

Date:

Astronomy

Mar. 24, 2012 Rise Set
Actual Time 7:35 AM EDT 7:55 PM EDT
Civil Twilight 7:08 AM EDT 8:21 PM EDT
Nautical Twilight 6:37 AM EDT 8:53 PM EDT
Astronomical Twilight 6:05 AM EDT 9:25 PM EDT
Moon 8:14 AM EDT (3/24) 10:12 PM EDT (3/24)
Length of Visible Light 13h 13m
Length of Day
12h 20m
Waxing Crescent, 4% of the Moon is Illuminated
Mar 24
Waxing Crescent
Mar 30
First Quarter
Apr 6
Full
Apr 13
Last Quarter
Apr 21
New

Hourly Weather History & Observations

Time (EDT) Temp. Dew Point Humidity Pressure Visibility Wind Dir Wind Speed Gust Speed Precip Events Conditions
12:04 AM 62.6 °F 60.8 °F 94% 29.79 in 10.0 mi WNW 4.6 mph - N/A   Mostly Cloudy
12:25 AM 62.6 °F 59.0 °F 88% 29.79 in 10.0 mi NW 8.1 mph - N/A Thunderstorm Thunderstorm
12:48 AM 57.2 °F 55.4 °F 94% 29.82 in 1.5 mi WNW 12.7 mph 23.0 mph 0.21 in Rain , Thunderstorm Thunderstorms and Rain
12:52 AM 57.9 °F 55.0 °F 90% 29.79 in 5.0 mi WNW 11.5 mph - 0.23 in Rain , Thunderstorm Thunderstorms and Rain
1:40 AM 57.2 °F 55.4 °F 94% 29.84 in 10.0 mi West 8.1 mph - 0.10 in Rain Light Rain
1:42 AM 57.2 °F 55.4 °F 94% 29.85 in 10.0 mi West 8.1 mph - 0.10 in Rain Light Rain
1:52 AM 55.9 °F 54.0 °F 93% 29.83 in 10.0 mi NW 8.1 mph - 0.11 in   Overcast
2:06 AM 55.4 °F 53.6 °F 94% 29.85 in 10.0 mi NW 4.6 mph - N/A   Mostly Cloudy
2:52 AM 55.0 °F 53.1 °F 93% 29.81 in 10.0 mi North 5.8 mph - N/A   Clear
3:52 AM 54.0 °F 53.1 °F 97% 29.81 in 7.0 mi SSW 3.5 mph - N/A   Overcast
4:52 AM 53.1 °F 52.0 °F 96% 29.79 in 5.0 mi SSE 3.5 mph - N/A   Overcast
5:52 AM 53.1 °F 52.0 °F 96% 29.80 in 5.0 mi SSW 6.9 mph - N/A   Overcast
6:52 AM 52.0 °F 52.0 °F 100% 29.80 in 5.0 mi SSW 3.5 mph - N/A   Overcast
7:19 AM 53.6 °F 51.8 °F 94% 29.82 in 0.2 mi SSW 6.9 mph - N/A   Overcast
7:52 AM 53.1 °F 53.1 °F 100% 29.81 in 0.5 mi SW 6.9 mph - N/A   Overcast
8:11 AM 53.6 °F 53.6 °F 100% 29.83 in 3.0 mi SW 10.4 mph - N/A   Overcast
8:45 AM 53.6 °F 51.8 °F 94% 29.84 in 5.0 mi WSW 8.1 mph - N/A   Mostly Cloudy
8:52 AM 53.1 °F 52.0 °F 96% 29.83 in 6.0 mi SW 6.9 mph - N/A   Mostly Cloudy
9:52 AM 55.0 °F 52.0 °F 89% 29.85 in 10.0 mi West 9.2 mph - N/A   Overcast
10:52 AM 57.0 °F 51.1 °F 81% 29.85 in 10.0 mi WNW 6.9 mph - N/A   Mostly Cloudy
11:52 AM 60.1 °F 50.0 °F 69% 29.85 in 10.0 mi West 9.2 mph - N/A   Mostly Cloudy
12:52 PM 60.1 °F 46.9 °F 62% 29.85 in 10.0 mi West 9.2 mph - N/A   Mostly Cloudy
1:52 PM 60.1 °F 46.0 °F 60% 29.84 in 10.0 mi WSW 4.6 mph - N/A   Mostly Cloudy
2:52 PM 64.0 °F 48.0 °F 56% 29.83 in 10.0 mi West 3.5 mph - N/A   Mostly Cloudy
3:52 PM 62.1 °F 46.0 °F 56% 29.82 in 10.0 mi West 9.2 mph - N/A   Overcast
4:52 PM 62.1 °F 46.0 °F 56% 29.83 in 10.0 mi NW 9.2 mph - N/A   Mostly Cloudy
5:52 PM 62.6 °F 44.6 °F 52% 29.84 in 10.0 mi NW 6.9 mph - N/A   Mostly Cloudy
6:52 PM 63.0 °F 44.1 °F 50% 29.84 in 10.0 mi Calm Calm - N/A   Mostly Cloudy
7:52 PM 59.0 °F 44.1 °F 58% 29.83 in 10.0 mi Calm Calm - N/A   Mostly Cloudy
8:52 PM 55.0 °F 45.0 °F 69% 29.85 in 10.0 mi WNW 3.5 mph - N/A   Scattered Clouds
9:52 PM 54.0 °F 45.0 °F 72% 29.85 in 10.0 mi West 4.6 mph - N/A   Scattered Clouds
10:52 PM 54.0 °F 44.1 °F 69% 29.87 in 10.0 mi Calm Calm - N/A   Scattered Clouds
11:52 PM 52.0 °F 44.1 °F 74% 29.86 in 10.0 mi Calm Calm - N/A   Scattered Clouds